TimeEST,TemperatureF,Dew PointF,Humidity,Sea Level PressureIn,VisibilityMPH,Wind Direction,Wind SpeedMPH,Gust SpeedMPH,PrecipitationIn,Events,Conditions,WindDirDegrees,DateUTC
12:51 AM,21.9,14.0,72,29.81,-9999.0,WSW,6.9,-,N/A,,Unknown,240,2012-12-31 05:51:00
1:51 AM,23.0,15.1,72,29.78,-9999.0,WSW,5.8,-,N/A,,Unknown,240,2012-12-31 06:51:00
2:51 AM,25.0,18.0,75,29.78,-9999.0,Variable,4.6,-,N/A,,Unknown,0,2012-12-31 07:51:00
3:51 AM,28.0,21.9,78,29.79,-9999.0,North,23.0,31.1,N/A,,Unknown,350,2012-12-31 08:51:00
4:51 AM,26.1,19.9,78,29.81,-9999.0,North,29.9,36.8,N/A,,Unknown,360,2012-12-31 09:51:00
5:51 AM,24.1,18.0,77,29.85,-9999.0,North,29.9,36.8,N/A,,Unknown,360,2012-12-31 10:51:00
6:51 AM,21.9,17.1,82,29.89,-9999.0,North,26.5,34.5,N/A,,Unknown,10,2012-12-31 11:51:00
7:51 AM,21.0,14.0,74,29.91,-9999.0,North,25.3,33.4,N/A,,Unknown,360,2012-12-31 12:51:00
8:51 AM,21.0,16.0,81,29.92,-9999.0,North,23.0,32.2,N/A,,Unknown,360,2012-12-31 13:51:00
9:51 AM,19.9,15.1,81,29.96,-9999.0,North,28.8,38.0,N/A,,Unknown,10,2012-12-31 14:51:00
10:51 AM,17.1,10.9,77,30.00,-9999.0,North,23.0,-,N/A,,Unknown,360,2012-12-31 15:51:00
11:51 AM,16.0,12.0,84,30.02,-9999.0,North,24.2,34.5,N/A,,Unknown,10,2012-12-31 16:51:00
12:51 PM,16.0,10.0,77,30.03,-9999.0,North,23.0,-,N/A,,Unknown,360,2012-12-31 17:51:00
1:51 PM,16.0,12.0,84,30.02,-9999.0,North,23.0,29.9,N/A,,Unknown,10,2012-12-31 18:51:00
2:51 PM,16.0,10.0,77,30.03,-9999.0,North,20.7,31.1,N/A,,Unknown,10,2012-12-31 19:51:00
3:51 PM,16.0,10.0,77,30.05,-9999.0,North,24.2,31.1,N/A,,Unknown,10,2012-12-31 20:51:00
4:51 PM,17.1,10.9,77,30.06,-9999.0,North,20.7,31.1,N/A,,Unknown,360,2012-12-31 21:51:00
5:51 PM,16.0,10.0,77,30.09,-9999.0,North,24.2,29.9,N/A,,Unknown,360,2012-12-31 22:51:00
6:51 PM,17.1,10.0,74,30.11,-9999.0,North,18.4,25.3,N/A,,Unknown,360,2012-12-31 23:51:00
7:51 PM,17.1,10.0,74,30.12,-9999.0,North,18.4,-,N/A,,Unknown,10,2013-01-01 00:51:00
8:51 PM,17.1,10.9,77,30.12,-9999.0,NNE,21.9,26.5,N/A,,Unknown,30,2013-01-01 01:51:00
9:51 PM,16.0,12.0,84,30.14,-9999.0,NNE,18.4,26.5,N/A,,Unknown,20,2013-01-01 02:51:00
10:51 PM,16.0,8.1,71,30.14,-9999.0,NNE,18.4,-,N/A,,Unknown,30,2013-01-01 03:51:00
11:51 PM,15.1,10.0,80,30.15,-9999.0,NNE,16.1,26.5,N/A,,Unknown,30,2013-01-01 04:51:00